Terminal Aerodrome Forecast
Issued by NWS St Louis, MO

Home | Current Version | Previous Version | Text Only | Print | Product List | Glossary On
Versions: 1 2 3 4 5 6 7 8 9 10 11 12 13 14 15 16 17 18 19 20 21 22 23 24 25 26 27 28 29
000
FTUS43 KLSX 242300
TAFSTL
TAF
KSTL 242340Z 2500/2606 28012G20KT P6SM BKN040 OVC080
     FM250600 28009KT P6SM SCT040
     FM260000 VRB04KT P6SM SKC=

USA.gov is the U.S. government's official web portal to all federal, state and local government web resources and services.